• In Portugal
  • List of Countries
  • For 7 days
  • Water Temperature
  • Satellite Maps
  • Weather Map
  • Weather Widgets
  • user-avatar
    Login

    Hourly Weather Golinsk

    Today, 23 October, Tuesday

    Time Temperature Precipitation Wind Pressure Humidity
    00:00 +4°C° 0 mm 2 mps 727 mmHg 89%
    01:00 +4°C° 0 mm 1 mps 727 mmHg 92%
    02:00 +3°C° 0 mm 2 mps 727 mmHg 91%
    03:00 +3°C° 0 mm 2 mps 726 mmHg 90%
    04:00 +3°C° 0 mm 2 mps 725 mmHg 90%
    05:00 +2°C° 0 mm 3 mps 725 mmHg 89%
    06:00 +2°C° 0 mm 3 mps 724 mmHg 88%
    07:00 +1°C° 0 mm 4 mps 724 mmHg 86%
    08:00 +3°C° 0 mm 5 mps 723 mmHg 79%
    09:00 +4°C° 0 mm 7 mps 722 mmHg 71%
    10:00 +5°C° 0 mm 8 mps 721 mmHg 64%
    11:00 +6°C° 0.3 mm 8 mps 721 mmHg 64%
    12:00 +6°C° 0.3 mm 9 mps 720 mmHg 65%
    13:00 +6°C° 0.3 mm 9 mps 719 mmHg 66%
    14:00 +6°C° 0.3 mm 9 mps 718 mmHg 70%
    15:00 +6°C° 0.3 mm 9 mps 717 mmHg 74%
    16:00 +6°C° 0.3 mm 10 mps 716 mmHg 77%
    17:00 +6°C° 0.3 mm 10 mps 716 mmHg 78%
    18:00 +7°C° 0.3 mm 10 mps 715 mmHg 79%
    19:00 +7°C° 0.3 mm 10 mps 714 mmHg 80%
    20:00 +8°C° 0.7 mm 10 mps 714 mmHg 81%
    21:00 +8°C° 0.7 mm 10 mps 714 mmHg 81%
    22:00 +8°C° 0.7 mm 10 mps 713 mmHg 82%
    23:00 +8°C° 1.1 mm 10 mps 713 mmHg 82%

    Tomorrow, 24 October, Wednesday

    Time Temperature Precipitation Wind Pressure Humidity
    00:00 +8°C° 1.1 mm 10 mps 712 mmHg 82%
    01:00 +8°C° 1.1 mm 10 mps 712 mmHg 83%
    02:00 +8°C° 1.2 mm 10 mps 712 mmHg 81%
    03:00 +7°C° 1.2 mm 10 mps 712 mmHg 79%
    04:00 +6°C° 1.2 mm 10 mps 712 mmHg 77%
    05:00 +6°C° 0.3 mm 9 mps 712 mmHg 77%
    06:00 +5°C° 0.3 mm 9 mps 713 mmHg 76%
    07:00 +4°C° 0.3 mm 8 mps 713 mmHg 75%
    08:00 +3°C° 0.1 mm 9 mps 714 mmHg 71%
    09:00 +3°C° 0.1 mm 9 mps 715 mmHg 66%
    10:00 +3°C° 0.1 mm 10 mps 715 mmHg 61%
    11:00 +5°C° 0.1 mm 10 mps 716 mmHg 59%
    12:00 +5°C° 0.1 mm 9 mps 716 mmHg 57%
    13:00 +5°C° 0.1 mm 9 mps 717 mmHg 54%
    14:00 +5°C° 0 mm 8 mps 717 mmHg 56%
    15:00 +4°C° 0 mm 8 mps 718 mmHg 57%
    16:00 +4°C° 0 mm 7 mps 718 mmHg 58%
    17:00 +3°C° 0 mm 6 mps 719 mmHg 61%
    18:00 +3°C° 0 mm 5 mps 719 mmHg 64%
    19:00 +2°C° 0 mm 5 mps 720 mmHg 68%
    20:00 +3°C° 0 mm 4 mps 720 mmHg 70%
    21:00 +1°C° 0 mm 4 mps 720 mmHg 73%
    22:00 +1°C° 0 mm 4 mps 720 mmHg 75%
    23:00 +1°C° 0 mm 4 mps 720 mmHg 78%

    Day after tomorrow, 25 October, Thursday

    Time Temperature Precipitation Wind Pressure Humidity
    00:00 +1°C° 0 mm 4 mps 720 mmHg 80%
    01:00 +2°C° 0 mm 3 mps 720 mmHg 83%
    02:00 +1°C° 0.1 mm 4 mps 719 mmHg 83%
    03:00 +3°C° 0.1 mm 4 mps 719 mmHg 84%
    04:00 +4°C° 0.1 mm 4 mps 718 mmHg 85%
    05:00 +5°C° 0.3 mm 5 mps 718 mmHg 86%
    06:00 +7°C° 0.3 mm 6 mps 717 mmHg 86%
    07:00 +8°C° 0.3 mm 7 mps 717 mmHg 87%
    08:00 +8°C° 0.1 mm 7 mps 717 mmHg 85%
    09:00 +9°C° 0.1 mm 7 mps 717 mmHg 83%
    10:00 +9°C° 0.1 mm 8 mps 717 mmHg 81%
    11:00 +9°C° 0 mm 8 mps 716 mmHg 78%
    12:00 +10°C° 0 mm 8 mps 716 mmHg 75%
    13:00 +10°C° 0 mm 9 mps 716 mmHg 71%
    14:00 +10°C° 0 mm 8 mps 716 mmHg 72%
    15:00 +10°C° 0 mm 8 mps 716 mmHg 73%
    16:00 +10°C° 0 mm 7 mps 716 mmHg 74%
    17:00 +9°C° 0.1 mm 7 mps 716 mmHg 76%
    18:00 +9°C° 0.1 mm 6 mps 716 mmHg 78%
    19:00 +9°C° 0.1 mm 6 mps 716 mmHg 80%
    20:00 +8°C° 0.1 mm 6 mps 717 mmHg 81%
    21:00 +8°C° 0.1 mm 5 mps 717 mmHg 82%
    22:00 +8°C° 0.1 mm 5 mps 717 mmHg 83%
    23:00 +7°C° 0.1 mm 5 mps 717 mmHg 84%

    26 October, Friday

    Time Temperature Precipitation Wind Pressure Humidity
    00:00 +7°C° 0.1 mm 4 mps 717 mmHg 84%
    01:00 +7°C° 0.1 mm 4 mps 717 mmHg 85%
    02:00 +7°C° 0.1 mm 4 mps 717 mmHg 86%
    03:00 +7°C° 0.1 mm 3 mps 717 mmHg 87%
    04:00 +7°C° 0.1 mm 3 mps 717 mmHg 87%
    05:00 +7°C° 0.1 mm 3 mps 717 mmHg 88%
    06:00 +7°C° 0.1 mm 3 mps 717 mmHg 89%
    07:00 +7°C° 0.1 mm 3 mps 717 mmHg 90%
    08:00 +8°C° 0 mm 3 mps 717 mmHg 85%
    09:00 +9°C° 0 mm 3 mps 717 mmHg 80%
    10:00 +10°C° 0 mm 3 mps 717 mmHg 74%
    11:00 +10°C° 0 mm 4 mps 716 mmHg 72%
    12:00 +11°C° 0 mm 4 mps 716 mmHg 69%
    13:00 +12°C° 0 mm 4 mps 715 mmHg 66%
    14:00 +11°C° 0 mm 4 mps 715 mmHg 67%
    15:00 +11°C° 0 mm 4 mps 714 mmHg 68%
    16:00 +10°C° 0 mm 3 mps 714 mmHg 70%
    17:00 +9°C° 0 mm 3 mps 714 mmHg 73%
    18:00 +7°C° 0 mm 4 mps 713 mmHg 76%
    19:00 +6°C° 0 mm 4 mps 713 mmHg 79%
    20:00 +7°C° 0 mm 3 mps 713 mmHg 81%
    21:00 +7°C° 0 mm 3 mps 713 mmHg 83%
    22:00 +5°C° 0 mm 3 mps 713 mmHg 86%
    23:00 +5°C° 0 mm 3 mps 713 mmHg 87%

    27 October, Saturday

    Time Temperature Precipitation Wind Pressure Humidity
    00:00 +5°C° 0 mm 3 mps 713 mmHg 88%
    01:00 +5°C° 0 mm 3 mps 713 mmHg 89%
    02:00 +5°C° 0 mm 3 mps 712 mmHg 88%
    03:00 +5°C° 0 mm 3 mps 712 mmHg 87%
    04:00 +5°C° 0 mm 4 mps 712 mmHg 86%
    05:00 +5°C° 0.1 mm 4 mps 712 mmHg 86%
    06:00 +5°C° 0.1 mm 3 mps 712 mmHg 86%
    07:00 +5°C° 0.1 mm 3 mps 713 mmHg 86%
    08:00 +5°C° 0 mm 4 mps 713 mmHg 81%
    09:00 +6°C° 0 mm 4 mps 713 mmHg 75%
    10:00 +6°C° 0 mm 4 mps 714 mmHg 69%
    11:00 +7°C° 0 mm 4 mps 714 mmHg 66%
    12:00 +7°C° 0 mm 4 mps 714 mmHg 63%
    13:00 +8°C° 0 mm 3 mps 714 mmHg 60%
    14:00 +8°C° 0 mm 3 mps 714 mmHg 61%
    15:00 +7°C° 0 mm 2 mps 714 mmHg 63%
    16:00 +7°C° 0 mm 2 mps 714 mmHg 65%
    17:00 +7°C° 0 mm 1 mps 714 mmHg 67%
    18:00 +7°C° 0 mm 1 mps 714 mmHg 70%
    19:00 +6°C° 0 mm 1 mps 714 mmHg 72%
    20:00 +6°C° 0 mm 1 mps 714 mmHg 73%
    21:00 +6°C° 0 mm 1 mps 714 mmHg 74%
    22:00 +5°C° 0 mm 1 mps 714 mmHg 75%
    23:00 +4°C° 0 mm 2 mps 714 mmHg 76%

    28 October, Sunday

    Time Temperature Precipitation Wind Pressure Humidity
    00:00 +4°C° 0 mm 2 mps 714 mmHg 76%
    01:00 +4°C° 0 mm 2 mps 714 mmHg 76%
    02:00 +4°C° 0.1 mm 2 mps 714 mmHg 77%
    03:00 +3°C° 0.1 mm 3 mps 714 mmHg 78%
    04:00 +2°C° 0.1 mm 3 mps 713 mmHg 79%
    05:00 +2°C° 0.2 mm 3 mps 713 mmHg 79%
    06:00 +1°C° 0.2 mm 4 mps 713 mmHg 80%
    07:00 +1°C° 0.2 mm 4 mps 713 mmHg 81%
    08:00 +1°C° 0.3 mm 4 mps 713 mmHg 80%
    09:00 +1°C° 0.3 mm 5 mps 713 mmHg 80%
    10:00 +1°C° 0.3 mm 5 mps 713 mmHg 79%
    11:00 +1°C° 0.4 mm 5 mps 713 mmHg 79%
    12:00 +2°C° 0.4 mm 6 mps 712 mmHg 79%
    13:00 +2°C° 0.4 mm 6 mps 712 mmHg 78%
    14:00 +1°C° 0.8 mm 6 mps 712 mmHg 81%
    15:00 +1°C° 0.8 mm 6 mps 712 mmHg 83%
    16:00 +1°C° 0.8 mm 6 mps 712 mmHg 85%
    17:00 +1°C° 0.7 mm 6 mps 711 mmHg 86%
    18:00 +1°C° 0.7 mm 6 mps 711 mmHg 87%
    19:00 0°C° 0.7 mm 7 mps 711 mmHg 88%
    20:00 -1°C° 2 mm 7 mps 710 mmHg 89%
    21:00 -1°C° 2 mm 7 mps 710 mmHg 89%
    22:00 -1°C° 2 mm 7 mps 709 mmHg 90%
    23:00 -1°C° 2.5 mm 7 mps 709 mmHg 90%

    29 October, Monday

    Time Temperature Precipitation Wind Pressure Humidity
    00:00 -1°C° 2.5 mm 7 mps 708 mmHg 90%
    01:00 -1°C° 2.5 mm 7 mps 708 mmHg 91%
    02:00 -1°C° 1.3 mm 6 mps 707 mmHg 91%
    03:00 -2°C° 1.3 mm 6 mps 707 mmHg 91%
    04:00 -2°C° 1.3 mm 6 mps 706 mmHg 91%
    05:00 -1°C° 0.7 mm 5 mps 706 mmHg 92%
    06:00 -1°C° 0.7 mm 5 mps 706 mmHg 92%
    07:00 -1°C° 0.7 mm 5 mps 705 mmHg 93%
    08:00 -1°C° 1.1 mm 4 mps 705 mmHg 93%
    09:00 -1°C° 1.1 mm 4 mps 705 mmHg 93%
    10:00 0°C° 1.1 mm 3 mps 705 mmHg 94%
    11:00 0°C° 0.6 mm 3 mps 705 mmHg 94%
    12:00 0°C° 0.6 mm 3 mps 705 mmHg 93%
    13:00 0°C° 0.6 mm 3 mps 704 mmHg 93%
    14:00 0°C° 0.2 mm 3 mps 704 mmHg 94%
    15:00 +1°C° 0.2 mm 2 mps 704 mmHg 94%
    16:00 +1°C° 0.2 mm 2 mps 704 mmHg 94%
    17:00 +1°C° 0.2 mm 2 mps 704 mmHg 94%
    18:00 +1°C° 0.2 mm 2 mps 704 mmHg 94%
    19:00 +1°C° 0.2 mm 2 mps 704 mmHg 95%
    20:00 +1°C° 0.7 mm 2 mps 704 mmHg 95%
    21:00 +1°C° 0.7 mm 2 mps 704 mmHg 95%
    22:00 +2°C° 0.7 mm 1 mps 704 mmHg 95%
    23:00 +1°C° 0.4 mm 2 mps 704 mmHg 95%
    Show more